AirNav   Air Wisconsin pilot careers
 
 1084 users online  

2UT3 Fort Ranch Airport
Brigham City, Utah, USA

GOING TO BRIGHAM CITY?


FAA INFORMATION EFFECTIVE 16 AUGUST 2018

Location

FAA Identifier: 2UT3
Lat/Long: 41-29-31.8000N / 112-35-28.2000W
41-29.530000N / 112-35.470000W
41.4921667 / -112.5911667
(estimated)
Elevation: 4440 ft. / 1353 m (estimated)
Variation: 14E (2000)
From city: 25 miles SW of BRIGHAM CITY, UT
Time zone: UTC -6 (UTC -7 during Standard Time)
Zip code: 84307

Airport Operations

Airport use: Private use. Permission required prior to landing
Activation date: 07/2002
Control tower: no
ARTCC: SALT LAKE CITY CENTER
FSS: CEDAR CITY FLIGHT SERVICE STATION
Attendance: UNATNDD
Wind indicator: yes
Segmented circle: no

Nearby radio navigation aids

VOR radial/distance  VOR name  Freq  Var
OGDr292/27.4OGDEN VORTAC115.7014E
LHOr221/31.7BRIGHAM CITY VOR/DME112.9014E

Airport Services

Runway Information

Runway 16/34

Dimensions: 3000 x 50 ft. / 914 x 15 m
Surface: gravel
RUNWAY 16  RUNWAY 34
Traffic pattern: rightleft

Airport Ownership and Management from official FAA records

Ownership: Privately-owned
Owner: RIVERBEND ENTERPRISES INC.
P.O. BOX 50126
IDAHO FALLS, ID 83405
Phone 208-522-0085
Manager: LANE CLAYSON
2080 INT'L WAY
IDAHO FALLS, ID 83402
Phone 208-522-0085

Additional Remarks

OWNER DESIRES ARPT NOT BE CHARTED.

Instrument Procedures

There are no published instrument procedures at 2UT3.

Some nearby airports with instrument procedures:

KBMC - Brigham City Regional Airport (24 nm E)
KOGD - Ogden-Hinckley Airport (32 nm SE)
KHIF - Hill Air Force Base (36 nm SE)
KLGU - Logan-Cache Airport (38 nm NE)
KSLC - Salt Lake City International Airport (51 nm SE)
 
Loc | Ops | Rwys | IFR | FBO | Links
Com | Nav | Svcs | Stats | Notes


 
Area around 2UT3 (Fort Ranch Airport)
 
Road maps at: MapQuest Bing Google
 
Aerial photo
No photo
 
Sectional chart

 
Airport distance calculator
Flying to Fort Ranch Airport? Find the distance to fly.

From to 2UT3

Sunrise and sunset
Times for 20-Aug-2018
 Local
(UTC-6)
 Zulu
(UTC)
Morning civil twilight06:1612:16
Sunrise06:4512:45
Sunset20:2202:22
Evening civil twilight20:5102:51

Current date and time
Zulu (UTC)  21-Aug-2018 01:19:57
Local (UTC-6)  20-Aug-2018 19:19:57
 
METAR
KBMC 
24nm E 
210055Z AUTO 36003KT 10SM CLR 30/02 A2987 RMK AO1 T03040019
KOGD 
31nm SE 
210053Z 16009KT 10SM CLR 28/08 A2989 RMK AO2 SLP061 T02830083
KHIF 
36nm SE 
210058Z AUTO 11008KT 10SM BKN140 28/07 A2992 RMK AO2 SLP072 T02790072
KLGU 
38nm NE 
210051Z AUTO 02005KT 10SM CLR 29/05 A2989 RMK AO2 RAE2352 SLP079 P0000 T02940050
TAF
KOGD 
31nm SE 
202227Z 2022/2118 20012KT P6SM -SHRA VCTS SCT090CB BKN120 TEMPO 2022/2024 VRB15G25KT 6SM -TSRA BKN080CB FM210100 12008KT P6SM SCT140 SCT200
KHIF 
36nm SE 
202101Z 2021/2203 17010G15KT 9999 VCSH FEW100 BKN120 QNH2996INS TEMPO 2021/2124 VRB25G35KT 8000 -TSRA BKN100CB BECMG 2105/2106 11012KT 9999 NSW BKN120 QNH3001INS BECMG 2114/2115 21009KT 9999 SCT085 SCT120 QNH3005INS TX31/2022Z TN17/2112Z
KLGU 
38nm NE 
202036Z 2021/2118 VRB06KT 6SM FU VCSH BKN120 BKN160 FM202200 35012KT P6SM SCT080 BKN140 FM210100 32008KT P6SM SCT120 SCT200
NOTAMs
Click for the latest NOTAMs
NOTAMs are issued by the DoD/FAA and will open in a separate window not controlled by AirNav.

 

 
 

Would you like to see your business listed on this page?

 If your business provides an interesting product or service to pilots, flight crews, aircraft, or users of the Fort Ranch Airport, you should consider listing it here.  To start the listing process, click on the button below
 
Add a business
 

Other Pages about Fort Ranch Airport

Update a link
 
Copyright © AirNav, LLC. All rights reserved. Privacy Policy  Contact